Content
SEND FEEDBACK

Daily
Averages
Monthly
Summary
United States of America

GLENS FALLS, NEW YORK


Home > North America > United States > New York
Elevation: 321 feet     Latitude: 43 21N     Longitude: 073 37W

WEATHER
 
SELECT A DAY
Number of Records: 213,124;   Date Range: 1/1/95 - 8/12/14
 
SHARE

PRINT THIS DATA

[ ← Previous Day ]
WEATHER ALMANAC - APRIL 7, 2013
[ Next Day → ]
[ °C ]   °F
Weather ElementAverageHighLow
Temperature45.1 °F57.9 °F (2:53 pm)26.1 °F (1:53 am)
Dewpoint24.8 °F37 °F (11:53 pm)17.1 °F (1:53 am)
Humidity48.3 %75 % (2:53 am)24 % (1:53 pm)
Barometer30.03 in30.24 in (1:53 am)29.88 in (5:53 pm)
Wind Speed10 mph23 mph (1:53 pm)
Wind Gust35.7 mph (1:53 pm)
Weather ElementAverage
Visibility10 mi
Wind DirectionSE (133.5 °)

Weather ElementTotal
Precipitation---
Heating Degree Days23 (Base 65)
Averaged from 23 records on April 7, 2013
WEATHER CONDITIONS BREAKOUT
WIND DIRECTION BREAKOUT
WEATHER BY HOUR - APRIL 7, 2013
[ °C ]   °F
Local TimeTemperatureDewpointHumidityBarometerVisibilityWind DirectionWind SpeedGust SpeedPrecipitationEventsConditions
1:53 AM26.1 °F17.1 °F69 %30.24 in10.0 miCalmClear
2:53 AM26.1 °F19.0 °F75 %30.22 in10.0 miCalmPartly Cloudy
3:53 AM28.0 °F18.0 °F66 %30.20 in10.0 miCalmClear
4:53 AM28.9 °F19.9 °F69 %30.19 in10.0 miCalmOvercast
5:53 AM30.0 °F21.9 °F72 %30.19 in10.0 miCalmOvercast
6:53 AM32.0 °F21.9 °F66 %30.20 in10.0 miCalmOvercast
7:53 AM34.0 °F23.0 °F64 %30.18 in10.0 miCalmOvercast
8:53 AM41.0 °F21.9 °F47 %30.13 in10.0 miSSW (200°)10.4 mphClear
9:53 AM46.0 °F24.1 °F42 %30.10 in10.0 miSouth (190°)18.4 mph26.5 mphClear
10:53 AM46.9 °F21.0 °F36 %30.08 in10.0 miSouth (190°)17.3 mph28.8 mphClear
11:53 AM48.9 °F23.0 °F36 %30.04 in10.0 miSouth (180°)16.1 mph26.5 mphClear
12:53 PM53.1 °F21.0 °F29 %30.00 in10.0 miSSW (200°)17.3 mph33.4 mphClear
1:53 PM55.9 °F19.0 °F24 %29.95 in10.0 miSouth (180°)23.0 mph35.7 mphPartly Cloudy
2:53 PM57.9 °F21.0 °F24 %29.90 in10.0 miSouth (180°)17.3 mph31.1 mphClear
3:53 PM57.0 °F23.0 °F27 %29.92 in10.0 miSSW (200°)15.0 mph29.9 mphMostly Cloudy
4:53 PM57.9 °F26.1 °F30 %29.89 in10.0 miSouth (180°)15.0 mph28.8 mph0.00 inClear
5:53 PM57.0 °F28.9 °F34 %29.88 in10.0 miSouth (190°)23.0 mph32.2 mphClear
6:53 PM55.0 °F30.0 °F38 %29.88 in10.0 miSouth (180°)12.7 mph19.6 mphClear
7:53 PM53.1 °F30.9 °F43 %29.88 in10.0 miSouth (190°)10.4 mph18.4 mphClear
8:53 PM52.0 °F32.0 °F47 %29.89 in10.0 miSSW (200°)10.4 mph20.7 mphPartly Cloudy
9:53 PM51.1 °F35.1 °F54 %29.91 in10.0 miSSW (200°)9.2 mphPartly Cloudy
10:53 PM50.0 °F36.0 °F59 %29.94 in10.0 miSSW (210°)6.9 mphOvercast
11:53 PM50.0 °F37.0 °F61 %29.94 in10.0 miSSW (200°)8.1 mphOvercast
Hourly data recorded from KGFL, located miles away from Glens Falls, New York







STORIES FROM OUR PARTNERS